FFT1234 KILG-KISP

Flight info

Callsign FFT1234
Flight time 0h 48m
Altitude 17000
Route DITCH T416 DRIFT T320 SARDI CCC
Aircraft A321/M-SDE3FGHIRWY/LB1

Departure

Time 2026-05-05 18:04
Airport Wilmington Airport (KILG)

Arrival

Time 2026-05-05 18:53
Airport Long Island MacArthur Airport (KISP)
Time Latitude Longitude Altitude Speed Heading
2026-05-05 17:44 39.67527 -75.59843 88 ft 0 kts 221°
2026-05-05 17:56 39.67540 -75.59828 88 ft 3 kts 221°
2026-05-05 17:56 39.67554 -75.59812 90 ft 3 kts 221°
2026-05-05 17:57 39.67568 -75.59796 88 ft 3 kts 221°
2026-05-05 17:57 39.67581 -75.59780 89 ft 2 kts 221°
2026-05-05 17:57 39.67582 -75.59779 89 ft 0 kts 221°
2026-05-05 18:00 39.67576 -75.59795 91 ft 6 kts 257°
2026-05-05 18:00 39.67608 -75.59866 85 ft 10 kts 308°
2026-05-05 18:00 39.67642 -75.59941 86 ft 11 kts 303°
2026-05-05 18:00 39.67703 -75.60036 89 ft 14 kts 310°
2026-05-05 18:01 39.67738 -75.60139 87 ft 10 kts 301°
2026-05-05 18:01 39.67811 -75.60157 88 ft 15 kts
2026-05-05 18:01 39.67920 -75.60145 85 ft 17 kts
2026-05-05 18:01 39.68042 -75.60130 82 ft 19 kts
2026-05-05 18:02 39.68183 -75.60114 75 ft 22 kts
2026-05-05 18:02 39.68336 -75.60096 75 ft 22 kts
2026-05-05 18:02 39.68485 -75.60080 68 ft 21 kts
2026-05-05 18:02 39.68631 -75.60063 65 ft 21 kts
2026-05-05 18:03 39.68752 -75.60049 66 ft 12 kts
2026-05-05 18:03 39.68810 -75.60076 70 ft 8 kts 307°
2026-05-05 18:03 39.68811 -75.60146 64 ft 10 kts 238°
2026-05-05 18:03 39.68733 -75.60176 67 ft 15 kts 185°
2026-05-05 18:04 39.68464 -75.60207 67 ft 78 kts 185°
2026-05-05 18:04 39.67679 -75.60297 87 ft 146 kts 185°
2026-05-05 18:04 39.66574 -75.60427 645 ft 157 kts 188°
2026-05-05 18:04 39.65519 -75.60546 1605 ft 153 kts 188°
2026-05-05 18:05 39.64436 -75.60662 2141 ft 163 kts 188°
2026-05-05 18:05 39.63237 -75.60786 2294 ft 183 kts 186°
2026-05-05 18:05 39.61938 -75.60367 2426 ft 210 kts 153°
2026-05-05 18:05 39.61038 -75.58748 2535 ft 243 kts 110°
2026-05-05 18:06 39.60992 -75.56425 2737 ft 274 kts 84°
2026-05-05 18:06 39.61264 -75.54804 3160 ft 280 kts 77°
2026-05-05 18:06 39.62079 -75.51531 4174 ft 288 kts 73°
2026-05-05 18:06 39.62749 -75.49062 4904 ft 293 kts 73°
2026-05-05 18:07 39.63407 -75.46533 5563 ft 299 kts 75°
2026-05-05 18:07 39.64041 -75.43924 6242 ft 307 kts 76°
2026-05-05 18:07 39.64660 -75.41228 6850 ft 314 kts 76°
2026-05-05 18:07 39.65258 -75.38522 7490 ft 319 kts 76°
2026-05-05 18:08 39.65860 -75.35728 8143 ft 323 kts 77°
2026-05-05 18:08 39.66463 -75.32896 8806 ft 328 kts 77°
2026-05-05 18:08 39.67070 -75.30022 9448 ft 333 kts 76°
2026-05-05 18:08 39.67687 -75.27105 10060 ft 338 kts 76°
2026-05-05 18:09 39.68330 -75.24081 10279 ft 359 kts 76°
2026-05-05 18:09 39.69017 -75.20859 10409 ft 380 kts 76°
2026-05-05 18:09 39.69740 -75.17464 10526 ft 401 kts 76°
2026-05-05 18:09 39.70497 -75.13906 10820 ft 414 kts 75°
2026-05-05 18:10 39.71271 -75.10273 11385 ft 418 kts 75°
2026-05-05 18:10 39.72047 -75.06623 11828 ft 422 kts 75°
2026-05-05 18:10 39.72830 -75.02937 11961 ft 426 kts 75°
2026-05-05 18:10 39.73631 -74.99146 11989 ft 443 kts 75°
2026-05-05 18:11 39.74449 -74.95248 11983 ft 449 kts 75°
2026-05-05 18:11 39.75272 -74.91333 11986 ft 450 kts 75°
2026-05-05 18:11 39.76097 -74.87409 11981 ft 450 kts 75°
2026-05-05 18:11 39.76922 -74.83482 11982 ft 450 kts 75°
2026-05-05 18:12 39.77746 -74.79552 11985 ft 450 kts 75°
2026-05-05 18:12 39.78566 -74.75627 11983 ft 450 kts 75°
2026-05-05 18:12 39.79321 -74.71739 11978 ft 450 kts 80°
2026-05-05 18:12 39.79724 -74.67708 11987 ft 449 kts 85°
2026-05-05 18:13 39.80052 -74.63672 11983 ft 449 kts 85°
2026-05-05 18:13 39.80380 -74.59636 11978 ft 449 kts 85°
2026-05-05 18:13 39.80709 -74.55605 11977 ft 449 kts 85°
2026-05-05 18:13 39.81041 -74.51560 11986 ft 449 kts 85°
2026-05-05 18:14 39.81371 -74.47520 11989 ft 449 kts 85°
2026-05-05 18:14 39.81685 -74.43480 11989 ft 448 kts 88°
2026-05-05 18:14 39.81740 -74.39431 11990 ft 447 kts 92°
2026-05-05 18:14 39.81742 -74.35377 11988 ft 447 kts 92°
2026-05-05 18:15 39.81739 -74.31332 11991 ft 447 kts 92°
2026-05-05 18:15 39.81730 -74.27284 11989 ft 447 kts 92°
2026-05-05 18:15 39.81719 -74.23241 11990 ft 447 kts 92°
2026-05-05 18:15 39.81709 -74.19237 11988 ft 447 kts 92°
2026-05-05 18:16 39.81701 -74.15194 11993 ft 447 kts 92°
2026-05-05 18:16 39.81692 -74.11149 11997 ft 447 kts 92°
2026-05-05 18:16 39.81680 -74.07111 12003 ft 446 kts 92°
2026-05-05 18:16 39.81665 -74.03067 12008 ft 446 kts 92°
2026-05-05 18:17 39.81649 -73.99031 12012 ft 446 kts 92°
2026-05-05 18:17 39.81634 -73.95003 12015 ft 445 kts 92°
2026-05-05 18:17 39.81616 -73.91016 12017 ft 445 kts 92°
2026-05-05 18:17 39.81595 -73.86985 12024 ft 445 kts 92°
2026-05-05 18:18 39.81577 -73.82959 12026 ft 445 kts 92°
2026-05-05 18:18 39.81557 -73.78923 12027 ft 445 kts 92°
2026-05-05 18:18 39.81578 -73.74899 12023 ft 445 kts 88°
2026-05-05 18:18 39.82031 -73.70910 12022 ft 447 kts 77°
2026-05-05 18:19 39.83015 -73.67077 12027 ft 447 kts 66°
2026-05-05 18:19 39.84477 -73.63524 12024 ft 445 kts 55°
2026-05-05 18:19 39.86345 -73.60333 12025 ft 443 kts 48°
2026-05-05 18:19 39.88302 -73.57233 12025 ft 444 kts 48°
2026-05-05 18:20 39.90303 -73.54172 12023 ft 442 kts 43°
2026-05-05 18:20 39.92515 -73.51478 12024 ft 441 kts 39°
2026-05-05 18:20 39.94794 -73.48799 12024 ft 441 kts 39°
2026-05-05 18:20 39.97070 -73.46109 12023 ft 441 kts 39°
2026-05-05 18:21 39.99347 -73.43414 12027 ft 441 kts 39°
2026-05-05 18:21 40.01627 -73.40717 12026 ft 441 kts 39°
2026-05-05 18:21 40.03905 -73.38019 12027 ft 441 kts 39°
2026-05-05 18:21 40.06179 -73.35319 12030 ft 442 kts 39°
2026-05-05 18:22 40.08448 -73.32617 12032 ft 442 kts 39°
2026-05-05 18:22 40.10718 -73.29915 12028 ft 442 kts 39°
2026-05-05 18:22 40.12932 -73.27279 11830 ft 430 kts 39°
2026-05-05 18:22 40.15115 -73.24674 11580 ft 420 kts 39°
2026-05-05 18:23 40.17268 -73.22105 11336 ft 418 kts 39°
2026-05-05 18:23 40.19413 -73.19548 11088 ft 416 kts 39°
2026-05-05 18:23 40.21546 -73.17002 10842 ft 415 kts 39°
2026-05-05 18:23 40.23678 -73.14449 10604 ft 414 kts 39°
2026-05-05 18:24 40.25801 -73.11905 10363 ft 414 kts 40°
2026-05-05 18:24 40.27899 -73.09384 10124 ft 403 kts 40°
2026-05-05 18:24 40.29941 -73.06930 9919 ft 391 kts 40°
2026-05-05 18:24 40.31909 -73.04565 9790 ft 375 kts 39°
2026-05-05 18:25 40.33760 -73.02342 9641 ft 346 kts 39°
2026-05-05 18:25 40.34912 -73.00956 9547 ft 335 kts 39°
2026-05-05 18:25 40.37200 -72.98206 9389 ft 332 kts 39°
2026-05-05 18:25 40.38900 -72.96167 9264 ft 330 kts 39°
2026-05-05 18:26 40.40591 -72.94137 9134 ft 329 kts 39°
2026-05-05 18:26 40.42260 -72.92133 9010 ft 329 kts 39°
2026-05-05 18:26 40.43948 -72.90105 8891 ft 328 kts 39°
2026-05-05 18:26 40.45627 -72.88081 8663 ft 328 kts 40°
2026-05-05 18:27 40.47307 -72.86050 8269 ft 327 kts 40°
2026-05-05 18:27 40.48979 -72.84029 7858 ft 327 kts 40°
2026-05-05 18:27 40.50687 -72.82065 7434 ft 325 kts 32°
2026-05-05 18:27 40.52648 -72.80662 7083 ft 316 kts 15°
2026-05-05 18:28 40.56844 -72.79879 6630 ft 302 kts 353°
2026-05-05 18:28 40.58908 -72.79879 6397 ft 299 kts 354°
2026-05-05 18:28 40.60991 -72.79882 6177 ft 299 kts 354°
2026-05-05 18:29 40.63063 -72.79882 5962 ft 297 kts 354°
2026-05-05 18:29 40.65136 -72.79881 5755 ft 297 kts 354°
2026-05-05 18:29 40.67186 -72.79882 5542 ft 290 kts 354°
2026-05-05 18:29 40.69129 -72.79876 5344 ft 269 kts 354°
2026-05-05 18:30 40.70947 -72.79863 5114 ft 256 kts 354°
2026-05-05 18:30 40.72715 -72.79859 4797 ft 252 kts 354°
2026-05-05 18:30 40.74458 -72.79864 4440 ft 250 kts 354°
2026-05-05 18:30 40.76193 -72.79870 4245 ft 249 kts 354°
2026-05-05 18:31 40.77924 -72.79876 4127 ft 249 kts 354°
2026-05-05 18:31 40.79656 -72.79878 4008 ft 249 kts 354°
2026-05-05 18:31 40.81373 -72.79877 3880 ft 242 kts 355°
2026-05-05 18:31 40.83027 -72.79874 3762 ft 233 kts 354°
2026-05-05 18:32 40.84638 -72.79874 3674 ft 230 kts 354°
2026-05-05 18:32 40.86236 -72.79875 3607 ft 230 kts 354°
2026-05-05 18:32 40.87834 -72.79873 3471 ft 229 kts 354°
2026-05-05 18:32 40.89391 -72.80096 3321 ft 221 kts 337°
2026-05-05 18:33 40.90740 -72.80969 3174 ft 212 kts 316°
2026-05-05 18:33 40.91745 -72.82313 3034 ft 201 kts 299°
2026-05-05 18:33 40.92341 -72.83913 2875 ft 193 kts 281°
2026-05-05 18:33 40.92542 -72.85630 2780 ft 187 kts 265°
2026-05-05 18:34 40.92438 -72.87341 2695 ft 188 kts 260°
2026-05-05 18:34 40.92313 -72.89061 2597 ft 188 kts 261°
2026-05-05 18:34 40.92191 -72.90779 2505 ft 185 kts 261°
2026-05-05 18:34 40.92079 -72.92398 2413 ft 171 kts 260°
2026-05-05 18:35 40.91772 -72.93874 2328 ft 164 kts 243°
2026-05-05 18:35 40.91118 -72.95081 2226 ft 161 kts 225°
2026-05-05 18:35 40.90309 -72.96144 2129 ft 164 kts 226°
2026-05-05 18:35 40.89509 -72.97202 2072 ft 163 kts 226°
2026-05-05 18:36 40.88734 -72.98227 2016 ft 149 kts 225°
2026-05-05 18:36 40.88007 -72.99188 2013 ft 146 kts 224°
2026-05-05 18:36 40.87296 -73.00127 1963 ft 145 kts 225°
2026-05-05 18:36 40.86585 -73.01066 1840 ft 144 kts 225°
2026-05-05 18:37 40.85891 -73.01981 1692 ft 143 kts 223°
2026-05-05 18:37 40.85188 -73.02910 1491 ft 142 kts 224°
2026-05-05 18:37 40.84493 -73.03827 1319 ft 141 kts 223°
2026-05-05 18:37 40.83787 -73.04754 1147 ft 145 kts 222°
2026-05-05 18:38 40.83099 -73.05656 910 ft 142 kts 222°
2026-05-05 18:38 40.82416 -73.06577 664 ft 139 kts 220°
2026-05-05 18:38 40.81957 -73.07180 538 ft 139 kts 219°
2026-05-05 18:38 40.81288 -73.08054 356 ft 133 kts 223°
2026-05-05 18:39 40.80630 -73.08920 228 ft 137 kts 224°
2026-05-05 18:39 40.79968 -73.09799 115 ft 128 kts 223°
2026-05-05 18:39 40.79343 -73.10628 222 ft 140 kts 224°
2026-05-05 18:39 40.78635 -73.11599 932 ft 149 kts 224°
2026-05-05 18:40 40.77933 -73.12595 1894 ft 146 kts 226°
2026-05-05 18:40 40.77220 -73.13575 2165 ft 159 kts 225°
2026-05-05 18:40 40.76397 -73.14685 2079 ft 184 kts 225°
2026-05-05 18:40 40.75439 -73.15964 2022 ft 206 kts 224°
2026-05-05 18:41 40.74414 -73.17359 2018 ft 213 kts 226°
2026-05-05 18:41 40.73375 -73.18750 2001 ft 213 kts 225°
2026-05-05 18:41 40.72327 -73.20142 2002 ft 214 kts 225°
2026-05-05 18:41 40.71284 -73.21553 2011 ft 214 kts 225°
2026-05-05 18:42 40.70180 -73.22866 1996 ft 214 kts 210°
2026-05-05 18:42 40.68740 -73.23295 1995 ft 219 kts 178°
2026-05-05 18:42 40.67231 -73.22855 2001 ft 224 kts 168°
2026-05-05 18:42 40.65767 -73.22226 2000 ft 225 kts 160°
2026-05-05 18:43 40.64575 -73.20843 2002 ft 238 kts 127°
2026-05-05 18:43 40.64090 -73.18717 2008 ft 249 kts 95°
2026-05-05 18:43 40.64457 -73.16508 1998 ft 244 kts 70°
2026-05-05 18:43 40.65127 -73.14497 1997 ft 237 kts 68°
2026-05-05 18:44 40.65822 -73.12534 2003 ft 236 kts 67°
2026-05-05 18:44 40.66526 -73.10578 2004 ft 236 kts 66°
2026-05-05 18:44 40.67307 -73.08661 2012 ft 237 kts 59°
2026-05-05 18:44 40.68203 -73.06881 2008 ft 237 kts 57°
2026-05-05 18:45 40.69124 -73.05081 2035 ft 236 kts 58°
2026-05-05 18:45 40.70056 -73.03297 2010 ft 236 kts 57°
2026-05-05 18:45 40.70991 -73.01505 2006 ft 237 kts 57°
2026-05-05 18:45 40.71930 -72.99713 2004 ft 238 kts 57°
2026-05-05 18:46 40.72870 -72.97918 2004 ft 238 kts 57°
2026-05-05 18:46 40.73813 -72.96125 2016 ft 238 kts 57°
2026-05-05 18:46 40.74758 -72.94331 2014 ft 239 kts 57°
2026-05-05 18:46 40.75708 -72.92526 2017 ft 240 kts 57°
2026-05-05 18:47 40.76651 -72.90720 2016 ft 239 kts 57°
2026-05-05 18:47 40.77733 -72.89065 2017 ft 241 kts 36°
2026-05-05 18:47 40.79263 -72.88311 2012 ft 233 kts
2026-05-05 18:47 40.80793 -72.88741 2018 ft 223 kts 325°
2026-05-05 18:48 40.82047 -72.89819 2011 ft 205 kts 317°
2026-05-05 18:48 40.83164 -72.90870 2025 ft 195 kts 317°
2026-05-05 18:48 40.84265 -72.91913 2025 ft 194 kts 316°
2026-05-05 18:48 40.85371 -72.92948 2017 ft 194 kts 317°
2026-05-05 18:49 40.86473 -72.93980 2027 ft 194 kts 317°
2026-05-05 18:49 40.87483 -72.95106 2012 ft 182 kts 296°
2026-05-05 18:49 40.87772 -72.96608 2019 ft 165 kts 257°
2026-05-05 18:49 40.87499 -72.98073 2013 ft 164 kts 248°
2026-05-05 18:50 40.87173 -72.99416 2004 ft 149 kts 247°
2026-05-05 18:50 40.86826 -73.00677 1950 ft 144 kts 238°
2026-05-05 18:50 40.86115 -73.01563 1762 ft 142 kts 220°
2026-05-05 18:50 40.85439 -73.02506 1584 ft 141 kts 224°
2026-05-05 18:51 40.84761 -73.03439 1402 ft 140 kts 225°
2026-05-05 18:51 40.84075 -73.04361 1212 ft 143 kts 222°
2026-05-05 18:51 40.83373 -73.05288 1024 ft 140 kts 222°
2026-05-05 18:51 40.82674 -73.06224 805 ft 141 kts 222°
2026-05-05 18:52 40.81975 -73.07161 586 ft 144 kts 221°
2026-05-05 18:52 40.81275 -73.08071 364 ft 138 kts 222°
2026-05-05 18:52 40.80610 -73.08948 205 ft 134 kts 223°
2026-05-05 18:52 40.79968 -73.09794 102 ft 122 kts 223°
2026-05-05 18:53 40.79479 -73.10437 102 ft 71 kts 225°
2026-05-05 18:53 40.79278 -73.10697 99 ft 21 kts 216°
2026-05-05 18:53 40.79167 -73.10720 98 ft 11 kts 178°
2026-05-05 18:53 40.79132 -73.10707 97 ft 5 kts 148°
2026-05-05 18:54 40.79113 -73.10649 96 ft 12 kts 99°
2026-05-05 18:54 40.79113 -73.10536 97 ft 13 kts 89°
2026-05-05 18:54 40.79113 -73.10401 97 ft 15 kts 90°
2026-05-05 18:54 40.79112 -73.10273 98 ft 13 kts 90°
2026-05-05 18:55 40.79112 -73.10206 95 ft 12 kts 90°